| time (UTC) | temp C | wind direction | speed KPH | gust KPH | rain 1hr cm | rain 24hr cm | rain mn cm | humidity % | barometer mb |
| 20260906024307 | 11 | 0.0 | 0.0 | 0.00 | 0.00 | 0.00 | 72 | 1020.8 | |
| 20260906023703 | 11 | 0.0 | 0.0 | 0.00 | 0.00 | 0.00 | 72 | 1020.7 | |
| 20260906023159 | 11 | 0.0 | 0.0 | 0.00 | 0.00 | 0.00 | 71 | 1020.7 | |
| 20260906022654 | 11 | 0.0 | 0.0 | 0.00 | 0.00 | 0.00 | 71 | 1020.8 | |
| 20260906022210 | 11 | 0.0 | 0.0 | 0.00 | 0.00 | 0.00 | 70 | 1020.7 | |
| 20260906021705 | 11 | 0.0 | 0.0 | 0.00 | 0.00 | 0.00 | 70 | 1020.8 | |
| 20260906021200 | 12 | 0.0 | 0.0 | 0.00 | 0.00 | 0.00 | 70 | 1020.7 | |
| 20260906020635 | 12 | 0.0 | 0.0 | 0.00 | 0.00 | 0.00 | 65 | 1020.6 | |
| 20260906020131 | 12 | 0.0 | 0.0 | 0.00 | 0.00 | 0.00 | 65 | 1020.7 | |
| 20260906015626 | 12 | 0.0 | 0.0 | 0.00 | 0.00 | 0.00 | 70 | 1020.6 | |
| 20260906015122 | 11 | 0.0 | 0.0 | 0.00 | 0.00 | 0.00 | 70 | 1020.5 | |
| 20260906014617 | 12 | 0.0 | 0.0 | 0.00 | 0.00 | 0.00 | 69 | 1020.6 | |
| 20260906014113 | 12 | 0.0 | 0.0 | 0.00 | 0.00 | 0.00 | 68 | 1020.5 | |
| 20260906013550 | 12 | 0.0 | 0.0 | 0.00 | 0.00 | 0.00 | 68 | 1020.6 | |
| 20260906012927 | 12 | 0.0 | 0.0 | 0.00 | 0.00 | 0.00 | 67 | 1020.6 | |
| 20260906012306 | 12 | 0.0 | 0.0 | 0.00 | 0.00 | 0.00 | 66 | 1020.7 | |
| 20260906011759 | 12 | 0.0 | 0.0 | 0.00 | 0.00 | 0.00 | 65 | 1020.7 | |
| 20260906010750 | 12 | 0.0 | 0.0 | 0.00 | 0.00 | 0.00 | 59 | 1020.6 | |
| 20260906010246 | 12 | 0.0 | 0.0 | 0.00 | 0.00 | 0.00 | 56 | 1020.5 | |
| 20260906005741 | 12 | 0.0 | 0.0 | 0.00 | 0.00 | 0.00 | 56 | 1020.6 | |
| 20260906005236 | 12 | 0.0 | 0.0 | 0.00 | 0.00 | 0.00 | 56 | 1020.5 | |
| 20260906004732 | 12 | 0.0 | 0.0 | 0.00 | 0.00 | 0.00 | 55 | 1020.4 | |
| 20260906004227 | 12 | 0.0 | 0.0 | 0.00 | 0.00 | 0.00 | 54 | 1020.3 | |
| 20260906003723 | 12 | 0.0 | 0.0 | 0.00 | 0.00 | 0.00 | 54 | 1020.2 | |
| 20260906003218 | 12 | 0.0 | 0.0 | 0.00 | 0.00 | 0.00 | 54 | 1020.2 | |
| 20260906002734 | 12 | 0.0 | 0.0 | 0.00 | 0.00 | 0.00 | 54 | 1020.3 | |
| 20260906002110 | 12 | 0.0 | 0.0 | 0.00 | 0.00 | 0.00 | 52 | 1020.3 | |
| 20260906001507 | 13 | 0.0 | 0.0 | 0.00 | 0.00 | 0.00 | 51 | 1020.1 | |
| 20260906000903 | 12 | 0.0 | 0.0 | 0.00 | 0.00 | 0.00 | 50 | 1020.1 | |
| 20260906000403 | 12 | 0.0 | 0.0 | 0.00 | 0.00 | 0.00 | 48 | 1020.0 | |
| 20260905235857 | 13 | 0.0 | 0.0 | 0.00 | 0.00 | 0.00 | 48 | 1020.2 | |
| 20260905235351 | 13 | 0.0 | 0.0 | 0.00 | 0.00 | 0.00 | 49 | 1019.7 | |
| 20260905234907 | 13 | 0.0 | 0.0 | 0.00 | 0.00 | 0.00 | 47 | 1020.1 | |
| 20260905234342 | 13 | 0.0 | 0.0 | 0.00 | 0.00 | 0.00 | 47 | 1020.0 | |
| 20260905233918 | 13 | 0.0 | 0.0 | 0.00 | 0.00 | 0.00 | 46 | 1020.0 | |
| 20260905233333 | 13 | 0.0 | 0.0 | 0.00 | 0.00 | 0.00 | 46 | 1020.0 | |
| 20260905232828 | 13 | 0.0 | 0.0 | 0.00 | 0.00 | 0.00 | 46 | 1020.0 | |
| 20260905232324 | 13 | 0.0 | 0.0 | 0.00 | 0.00 | 0.00 | 46 | 1020.3 | |
| 20260905231900 | 13 | 0.0 | 0.0 | 0.00 | 0.00 | 0.00 | 46 | 1020.1 | |
| 20260905231315 | 13 | 0.0 | 0.0 | 0.00 | 0.00 | 0.00 | 45 | 1020.2 | |
| 20260905230711 | 13 | 0.0 | 0.0 | 0.00 | 0.00 | 0.00 | 44 | 1020.1 | |
| 20260905230108 | 13 | 0.0 | 0.0 | 0.00 | 0.00 | 0.00 | 44 | 1020.1 | |
| 20260905225504 | 14 | 0.0 | 0.0 | 0.00 | 0.00 | 0.00 | 43 | 1019.9 | |
| 20260905225001 | 14 | 0.0 | 0.0 | 0.00 | 0.00 | 0.00 | 43 | 1020.1 | |
| 20260905224456 | 14 | 0.0 | 0.0 | 0.00 | 0.00 | 0.00 | 42 | 1020.0 | |
| 20260905223952 | 15 | 0.0 | 0.0 | 0.00 | 0.00 | 0.00 | 42 | 1020.0 | |
| 20260905223448 | 15 | 0.0 | 0.0 | 0.00 | 0.00 | 0.00 | 42 | 1020.0 | |
| 20260905222943 | 15 | 0.0 | 0.0 | 0.00 | 0.00 | 0.00 | 42 | 1020.0 | |
| 20260905222438 | 15 | 0.0 | 0.0 | 0.00 | 0.00 | 0.00 | 41 | 1019.9 | |
| 20260905221934 | 15 | 0.0 | 0.0 | 0.00 | 0.00 | 0.00 | 40 | 1020.1 | |
| 20260905221429 | 15 | 0.0 | 0.0 | 0.00 | 0.00 | 0.00 | 40 | 1019.9 | |
| 20260905220925 | 16 | 0.0 | 0.0 | 0.00 | 0.00 | 0.00 | 40 | 1020.0 | |
| 20260905220420 | 16 | 0.0 | 0.0 | 0.00 | 0.00 | 0.00 | 40 | 1020.0 | |
| 20260905215916 | 16 | 0.0 | 0.0 | 0.00 | 0.00 | 0.00 | 40 | 1019.8 | |
| 20260905215412 | 16 | 0.0 | 0.0 | 0.00 | 0.00 | 0.00 | 40 | 1019.8 | |
| 20260905214808 | 17 | 0.0 | 0.0 | 0.00 | 0.00 | 0.00 | 40 | 1019.7 | |
| 20260905214205 | 17 | 0.0 | 0.0 | 0.00 | 0.00 | 0.00 | 38 | 1019.6 | |
| 20260905213621 | 17 | 0.0 | 0.0 | 0.00 | 0.00 | 0.00 | 41 | 1019.5 | |
| 20260905213056 | 16 | 0.0 | 0.0 | 0.00 | 0.00 | 0.00 | 41 | 1019.4 | |
| 20260905212551 | 16 | 0.0 | 0.0 | 0.00 | 0.00 | 0.00 | 40 | 1019.4 | |
| 20260905212047 | 16 | 0.0 | 0.0 | 0.00 | 0.00 | 0.00 | 40 | 1019.5 | |
| 20260905211542 | 16 | 0.0 | 0.0 | 0.00 | 0.00 | 0.00 | 40 | 1019.6 | |
| 20260905211037 | 16 | 0.0 | 0.0 | 0.00 | 0.00 | 0.00 | 40 | 1019.4 | |
| 20260905210533 | 16 | 0.0 | 0.0 | 0.00 | 0.00 | 0.00 | 40 | 1019.4 | |
| 20260905210049 | 16 | 0.0 | 0.0 | 0.00 | 0.00 | 0.00 | 40 | 1019.4 | |
| 20260905205524 | 16 | 0.0 | 0.0 | 0.00 | 0.00 | 0.00 | 40 | 1019.2 | |
| 20260905205039 | 16 | 0.0 | 0.0 | 0.00 | 0.00 | 0.00 | 40 | 1019.2 | |
| 20260905204514 | 16 | 0.0 | 0.0 | 0.00 | 0.00 | 0.00 | 40 | 1019.2 | |
| 20260905203911 | 16 | 0.0 | 0.0 | 0.00 | 0.00 | 0.00 | 39 | 1019.2 | |
| 20260905203307 | 16 | 0.0 | 0.0 | 0.00 | 0.00 | 0.00 | 38 | 1019.2 | |
| 20260905202704 | 17 | 0.0 | 0.0 | 0.00 | 0.00 | 0.00 | 38 | 1019.1 | |
| 20260905202159 | 17 | 0.0 | 0.0 | 0.00 | 0.00 | 0.00 | 35 | 1019.1 | |
| 20260905201654 | 17 | 0.0 | 0.0 | 0.00 | 0.00 | 0.00 | 36 | 1019.1 | |
| 20260905201150 | 17 | 0.0 | 0.0 | 0.00 | 0.00 | 0.00 | 38 | 1019.2 | |
| 20260905200645 | 16 | 0.0 | 0.0 | 0.00 | 0.00 | 0.00 | 41 | 1019.2 | |
| 20260905200140 | 16 | 0.0 | 0.0 | 0.00 | 0.00 | 0.00 | 41 | 1018.9 | |
| 20260905195636 | 16 | 0.0 | 0.0 | 0.00 | 0.00 | 0.00 | 41 | 1018.9 | |
| 20260905195131 | 16 | 0.0 | 0.0 | 0.00 | 0.00 | 0.00 | 40 | 1018.9 | |
| 20260905194627 | 16 | 0.0 | 0.0 | 0.00 | 0.00 | 0.00 | 39 | 1018.7 | |
| 20260905194122 | 16 | 0.0 | 0.0 | 0.00 | 0.00 | 0.00 | 37 | 1018.6 | |
| 20260905193618 | 16 | 0.0 | 0.0 | 0.00 | 0.00 | 0.00 | 36 | 1018.7 | |
| 20260905193114 | 16 | 0.0 | 0.0 | 0.00 | 0.00 | 0.00 | 37 | 1018.7 | |
| 20260905192510 | 16 | 0.0 | 0.0 | 0.00 | 0.00 | 0.00 | 34 | 1018.5 | |
| 20260905191907 | 16 | 0.0 | 0.0 | 0.00 | 0.00 | 0.00 | 34 | 1018.5 | |
| 20260905191303 | 17 | 0.0 | 0.0 | 0.00 | 0.00 | 0.00 | 32 | 1018.5 | |
| 20260905190759 | 17 | 0.0 | 0.0 | 0.00 | 0.00 | 0.00 | 30 | 1018.4 | |
| 20260905190255 | 17 | 0.0 | 0.0 | 0.00 | 0.00 | 0.00 | 30 | 1018.3 | |
| 20260905185750 | 17 | 0.0 | 0.0 | 0.00 | 0.00 | 0.00 | 27 | 1018.3 | |
| 20260905185246 | 18 | 0.0 | 0.0 | 0.00 | 0.00 | 0.00 | 28 | 1018.1 | |
| 20260905184741 | 18 | 0.0 | 0.0 | 0.00 | 0.00 | 0.00 | 26 | 1018.3 | |
| 20260905184236 | 18 | 0.0 | 0.0 | 0.00 | 0.00 | 0.00 | 25 | 1018.3 | |
| 20260905183731 | 18 | 0 | 0.0 | 1.6 | 0.00 | 0.00 | 0.00 | 25 | 1018.0 |
| 20260905183228 | 18 | 0 | 0.0 | 1.6 | 0.00 | 0.00 | 0.00 | 23 | 1018.0 |
| 20260905182742 | 18 | 0 | 0.0 | 1.6 | 0.00 | 0.00 | 0.00 | 23 | 1017.8 |
| 20260905182217 | 18 | 337 | 0.0 | 3.2 | 0.00 | 0.00 | 0.00 | 23 | 1017.7 |
| 20260905181713 | 18 | 0 | 0.0 | 1.6 | 0.00 | 0.00 | 0.00 | 23 | 1017.8 |
| 20260905181129 | 18 | 0.0 | 0.0 | 0.00 | 0.00 | 0.00 | 22 | 1017.6 | |
| 20260905180506 | 18 | 0 | 0.0 | 1.6 | 0.00 | 0.00 | 0.00 | 23 | 1017.6 |
| 20260905175902 | 18 | 0 | 0.0 | 1.6 | 0.00 | 0.00 | 0.00 | 22 | 1017.4 |
| 20260905175458 | 18 | 0.0 | 0.0 | 0.00 | 0.00 | 0.00 | 21 | 1017.3 | |
| 20260905174954 | 18 | 0.0 | 0.0 | 0.00 | 0.00 | 0.00 | 20 | 1017.2 | |
| 20260905174509 | 19 | 0.0 | 0.0 | 0.00 | 0.00 | 0.00 | 15 | 1017.4 | |
| 20260905173945 | 20 | 0.0 | 0.0 | 0.00 | 0.00 | 0.00 | 15 | 1017.1 | |
| 20260905173440 | 20 | 0.0 | 0.0 | 0.00 | 0.00 | 0.00 | 20 | 1017.0 | |
| 20260905172935 | 21 | 0.0 | 0.0 | 0.00 | 0.00 | 0.00 | 15 | 1016.7 | |
| 20260905172431 | 21 | 90 | 1.6 | 3.2 | 0.00 | 0.00 | 0.00 | 15 | 1016.9 |
| 20260905171926 | 21 | 0.0 | 0.0 | 0.00 | 0.00 | 0.00 | 15 | 1016.7 | |
| 20260905171420 | 21 | 0.0 | 0.0 | 0.00 | 0.00 | 0.00 | 15 | 1016.8 | |
| 20260905170915 | 22 | 1.6 | 3.2 | 0.00 | 0.00 | 0.00 | 15 | 1016.7 | |
| 20260905170312 | 22 | 1.6 | 4.8 | 0.00 | 0.00 | 0.00 | 15 | 1016.8 | |
| 20260905165748 | 22 | 90 | 3.2 | 4.8 | 0.00 | 0.00 | 0.00 | 15 | 1016.6 |
| 20260905165104 | 22 | 0.0 | 1.6 | 0.00 | 0.00 | 0.00 | 15 | 1016.7 | |
| 20260905164601 | 22 | 135 | 0.0 | 3.2 | 0.00 | 0.00 | 0.00 | 15 | 1016.5 |
| 20260905164056 | 22 | 0.0 | 3.2 | 0.00 | 0.00 | 0.00 | 15 | 1016.8 | |
| 20260905163551 | 22 | 0 | 1.6 | 3.2 | 0.00 | 0.00 | 0.00 | 15 | 1016.8 |
| 20260905163047 | 22 | 1.6 | 3.2 | 0.00 | 0.00 | 0.00 | 15 | 1016.5 | |
| 20260905162541 | 22 | 3.2 | 4.8 | 0.00 | 0.00 | 0.00 | 15 | 1016.4 | |
| 20260905162037 | 23 | 45 | 3.2 | 4.8 | 0.00 | 0.00 | 0.00 | 15 | 1016.3 |
| 20260905161532 | 23 | 90 | 0.0 | 1.6 | 0.00 | 0.00 | 0.00 | 15 | 1016.3 |
| 20260905161058 | 23 | 90 | 1.6 | 4.8 | 0.00 | 0.00 | 0.00 | 19 | 1016.5 |
| 20260905160552 | 24 | 90 | 4.8 | 8.0 | 0.00 | 0.00 | 0.00 | 19 | 1016.3 |
| 20260905160047 | 24 | 90 | 4.8 | 6.4 | 0.00 | 0.00 | 0.00 | 19 | 1016.2 |
| 20260905155542 | 24 | 90 | 4.8 | 4.8 | 0.00 | 0.00 | 0.00 | 19 | 1016.4 |
| 20260905155038 | 25 | 90 | 3.2 | 4.8 | 0.00 | 0.00 | 0.00 | 19 | 1016.5 |
| 20260905154533 | 24 | 90 | 4.8 | 4.8 | 0.00 | 0.00 | 0.00 | 19 | 1016.4 |
| 20260905154049 | 24 | 90 | 1.6 | 4.8 | 0.00 | 0.00 | 0.00 | 19 | 1016.2 |
| 20260905153524 | 23 | 135 | 0.0 | 1.6 | 0.00 | 0.00 | 0.00 | 19 | 1016.3 |
| 20260905153020 | 23 | 3.2 | 4.8 | 0.00 | 0.00 | 0.00 | 19 | 1016.1 | |
| 20260905152515 | 23 | 1.6 | 3.2 | 0.00 | 0.00 | 0.00 | 19 | 1016.2 | |
| 20260905151911 | 23 | 1.6 | 3.2 | 0.00 | 0.00 | 0.00 | 19 | 1016.2 | |
| 20260905151308 | 23 | 90 | 4.8 | 4.8 | 0.00 | 0.00 | 0.00 | 19 | 1016.2 |
| 20260905150704 | 23 | 90 | 4.8 | 8.0 | 0.00 | 0.00 | 0.00 | 19 | 1016.3 |
| 20260905150201 | 23 | 90 | 3.2 | 4.8 | 0.00 | 0.00 | 0.00 | 19 | 1016.4 |
| 20260905145657 | 23 | 0 | 6.4 | 9.7 | 0.00 | 0.00 | 0.00 | 19 | 1016.4 |
| 20260905145152 | 23 | 90 | 4.8 | 8.0 | 0.00 | 0.00 | 0.00 | 19 | 1016.4 |
| 20260905144648 | 23 | 90 | 3.2 | 4.8 | 0.00 | 0.00 | 0.00 | 19 | 1016.6 |
| 20260905144143 | 23 | 4.8 | 6.4 | 0.00 | 0.00 | 0.00 | 19 | 1016.6 | |
| 20260905143638 | 23 | 0 | 3.2 | 4.8 | 0.00 | 0.00 | 0.00 | 19 | 1016.6 |
| 20260905143134 | 23 | 6.4 | 8.0 | 0.00 | 0.00 | 0.00 | 19 | 1016.7 | |
| 20260905142629 | 23 | 315 | 4.8 | 6.4 | 0.00 | 0.00 | 0.00 | 19 | 1016.6 |
| 20260905142125 | 23 | 90 | 6.4 | 8.0 | 0.00 | 0.00 | 0.00 | 19 | 1016.6 |
| 20260905141620 | 23 | 6.4 | 9.7 | 0.00 | 0.00 | 0.00 | 19 | 1016.6 | |
| 20260905141115 | 23 | 0 | 6.4 | 9.7 | 0.00 | 0.00 | 0.00 | 19 | 1016.8 |
| 20260905140632 | 23 | 90 | 3.2 | 4.8 | 0.00 | 0.00 | 0.00 | 19 | 1016.8 |
| 20260905140008 | 23 | 90 | 4.8 | 9.7 | 0.00 | 0.00 | 0.00 | 19 | 1016.9 |
| 20260905135425 | 23 | 315 | 9.7 | 11.3 | 0.00 | 0.00 | 0.00 | 19 | 1016.9 |
| 20260905134802 | 23 | 4.8 | 9.7 | 0.00 | 0.00 | 0.00 | 19 | 1017.1 | |
| 20260905134358 | 23 | 315 | 4.8 | 9.7 | 0.00 | 0.00 | 0.00 | 19 | 1017.0 |
| 20260905133853 | 23 | 4.8 | 8.0 | 0.00 | 0.00 | 0.00 | 19 | 1017.1 | |
| 20260905133349 | 24 | 0 | 6.4 | 9.7 | 0.00 | 0.00 | 0.00 | 19 | 1016.9 |
| 20260905132844 | 25 | 3.2 | 4.8 | 0.00 | 0.00 | 0.00 | 19 | 1016.7 | |
| 20260905132340 | 25 | 0 | 6.4 | 9.7 | 0.00 | 0.00 | 0.00 | 19 | 1016.8 |
| 20260905131855 | 25 | 315 | 4.8 | 8.0 | 0.00 | 0.00 | 0.00 | 19 | 1016.6 |
| 20260905131331 | 25 | 0 | 3.2 | 4.8 | 0.00 | 0.00 | 0.00 | 19 | 1016.7 |
| 20260905130855 | 26 | 0 | 4.8 | 6.4 | 0.00 | 0.00 | 0.00 | 19 | 1016.6 |
| 20260905130351 | 26 | 0 | 4.8 | 9.7 | 0.00 | 0.00 | 0.00 | 19 | 1016.6 |
| 20260905125846 | 27 | 0 | 8.0 | 9.7 | 0.00 | 0.00 | 0.00 | 19 | 1016.5 |
| 20260905125341 | 27 | 4.8 | 4.8 | 0.00 | 0.00 | 0.00 | 19 | 1016.4 | |
| 20260905124837 | 26 | 0 | 4.8 | 6.4 | 0.00 | 0.00 | 0.00 | 19 | 1016.5 |
| 20260905124352 | 26 | 0 | 6.4 | 8.0 | 0.00 | 0.00 | 0.00 | 19 | 1016.6 |
| 20260905123829 | 26 | 337 | 6.4 | 8.0 | 0.00 | 0.00 | 0.00 | 19 | 1016.5 |
| 20260905123322 | 27 | 4.8 | 9.7 | 0.00 | 0.00 | 0.00 | 19 | 1016.5 | |
| 20260905122817 | 27 | 0 | 4.8 | 11.3 | 0.00 | 0.00 | 0.00 | 19 | 1016.3 |
| 20260905122314 | 27 | 270 | 4.8 | 6.4 | 0.00 | 0.00 | 0.00 | 19 | 1016.5 |
| 20260905121710 | 26 | 90 | 1.6 | 3.2 | 0.00 | 0.00 | 0.00 | 19 | 1016.4 |
| 20260905121106 | 26 | 90 | 1.6 | 3.2 | 0.00 | 0.00 | 0.00 | 19 | 1016.5 |
| 20260905120523 | 27 | 135 | 6.4 | 9.7 | 0.00 | 0.00 | 0.00 | 19 | 1016.3 |
| 20260905115959 | 27 | 337 | 1.6 | 4.8 | 0.00 | 0.00 | 0.00 | 19 | 1016.4 |
| 20260905115454 | 27 | 90 | 4.8 | 8.0 | 0.00 | 0.00 | 0.00 | 19 | 1016.7 |
| 20260905114950 | 27 | 90 | 4.8 | 8.0 | 0.00 | 0.00 | 0.00 | 19 | 1016.5 |
| 20260905114445 | 28 | 90 | 16.1 | 19.3 | 0.00 | 0.00 | 0.00 | 19 | 1016.7 |
| 20260905114000 | 28 | 90 | 3.2 | 4.8 | 0.00 | 0.00 | 0.00 | 19 | 1016.8 |
| 20260905113435 | 27 | 135 | 4.8 | 8.0 | 0.00 | 0.00 | 0.00 | 19 | 1016.4 |
| 20260905112931 | 26 | 90 | 8.0 | 11.3 | 0.00 | 0.00 | 0.00 | 19 | 1016.5 |
| 20260905112426 | 26 | 90 | 9.7 | 12.9 | 0.00 | 0.00 | 0.00 | 19 | 1016.6 |
| 20260905111922 | 26 | 157 | 6.4 | 9.7 | 0.00 | 0.00 | 0.00 | 19 | 1016.6 |
| 20260905111417 | 26 | 90 | 11.3 | 14.5 | 0.00 | 0.00 | 0.00 | 19 | 1016.5 |
| 20260905110913 | 27 | 135 | 8.0 | 9.7 | 0.00 | 0.00 | 0.00 | 19 | 1016.6 |
| 20260905110310 | 26 | 225 | 4.8 | 8.0 | 0.00 | 0.00 | 0.00 | 19 | 1016.5 |
| 20260905105706 | 26 | 0 | 11.3 | 16.1 | 0.00 | 0.00 | 0.00 | 19 | 1016.4 |
| 20260905105103 | 26 | 90 | 8.0 | 9.7 | 0.00 | 0.00 | 0.00 | 19 | 1016.6 |
| 20260905104720 | 26 | 11.3 | 14.5 | 0.00 | 0.00 | 0.00 | 19 | 1016.6 | |
| 20260905104156 | 26 | 8.0 | 11.3 | 0.00 | 0.00 | 0.00 | 19 | 1016.6 | |
| 20260905103651 | 26 | 180 | 9.7 | 16.1 | 0.00 | 0.00 | 0.00 | 19 | 1016.5 |
| 20260905103146 | 26 | 12.9 | 19.3 | 0.00 | 0.00 | 0.00 | 19 | 1016.5 | |
| 20260905102643 | 26 | 90 | 9.7 | 14.5 | 0.00 | 0.00 | 0.00 | 19 | 1016.4 |
| 20260905102137 | 26 | 6.4 | 9.7 | 0.00 | 0.00 | 0.00 | 19 | 1016.5 | |
| 20260905101633 | 26 | 90 | 9.7 | 14.5 | 0.00 | 0.00 | 0.00 | 19 | 1016.4 |
| 20260905101148 | 26 | 90 | 6.4 | 11.3 | 0.00 | 0.00 | 0.00 | 19 | 1016.4 |
| 20260905100624 | 26 | 315 | 9.7 | 14.5 | 0.00 | 0.00 | 0.00 | 19 | 1016.7 |
| 20260905100119 | 26 | 315 | 9.7 | 14.5 | 0.00 | 0.00 | 0.00 | 19 | 1016.6 |
| 20260905095615 | 26 | 9.7 | 14.5 | 0.00 | 0.00 | 0.00 | 19 | 1016.2 | |
| 20260905095011 | 26 | 0 | 8.0 | 11.3 | 0.00 | 0.00 | 0.00 | 19 | 1016.6 |
| 20260905094408 | 26 | 90 | 14.5 | 20.9 | 0.00 | 0.00 | 0.00 | 19 | 1016.7 |
| 20260905093805 | 26 | 11.3 | 16.1 | 0.00 | 0.00 | 0.00 | 19 | 1016.7 | |
| 20260905093201 | 26 | 292 | 11.3 | 16.1 | 0.00 | 0.00 | 0.00 | 19 | 1016.6 |
| 20260905092818 | 26 | 90 | 14.5 | 19.3 | 0.00 | 0.00 | 0.00 | 19 | 1016.7 |
| 20260905092253 | 26 | 14.5 | 19.3 | 0.00 | 0.00 | 0.00 | 19 | 1016.7 | |
| 20260905091809 | 26 | 0 | 14.5 | 29.0 | 0.00 | 0.00 | 0.00 | 19 | 1016.7 |
| 20260905091244 | 25 | 90 | 14.5 | 30.6 | 0.00 | 0.00 | 0.00 | 19 | 1016.7 |
| 20260905090800 | 25 | 90 | 14.5 | 19.3 | 0.00 | 0.00 | 0.00 | 19 | 1016.6 |
| 20260905090235 | 25 | 16.1 | 20.9 | 0.00 | 0.00 | 0.00 | 19 | 1016.4 | |
| 20260905085751 | 25 | 90 | 14.5 | 16.1 | 0.00 | 0.00 | 0.00 | 19 | 1016.5 |
| 20260905085246 | 25 | 90 | 14.5 | 19.3 | 0.00 | 0.00 | 0.00 | 19 | 1016.4 |
| 20260905084722 | 25 | 0 | 17.7 | 24.1 | 0.00 | 0.00 | 0.00 | 19 | 1016.4 |
| 20260905084217 | 25 | 315 | 9.7 | 14.5 | 0.00 | 0.00 | 0.00 | 19 | 1016.1 |
| 20260905083714 | 25 | 315 | 20.9 | 29.0 | 0.00 | 0.00 | 0.00 | 19 | 1015.9 |
| 20260905083110 | 25 | 0 | 17.7 | 24.1 | 0.00 | 0.00 | 0.00 | 19 | 1015.8 |
| 20260905082506 | 25 | 12.9 | 19.3 | 0.00 | 0.00 | 0.00 | 19 | 1015.5 | |
| 20260905081903 | 25 | 0 | 17.7 | 24.1 | 0.00 | 0.00 | 0.00 | 19 | 1015.5 |
| 20260905081359 | 25 | 24.1 | 32.2 | 0.00 | 0.00 | 0.00 | 19 | 1015.6 | |
| 20260905080854 | 24 | 0 | 19.3 | 29.0 | 0.00 | 0.00 | 0.00 | 19 | 1015.4 |
| 20260905080350 | 24 | 19.3 | 25.7 | 0.00 | 0.00 | 0.00 | 19 | 1015.3 | |
| 20260905075845 | 24 | 22.5 | 27.4 | 0.00 | 0.00 | 0.00 | 19 | 1015.1 | |
| 20260905075339 | 24 | 0 | 14.5 | 17.7 | 0.00 | 0.00 | 0.00 | 19 | 1015.0 |
| 20260905074835 | 25 | 0 | 14.5 | 20.9 | 0.00 | 0.00 | 0.00 | 19 | 1014.8 |
| 20260905074330 | 25 | 0 | 24.1 | 29.0 | 0.00 | 0.00 | 0.00 | 19 | 1014.9 |
| 20260905073845 | 25 | 0 | 20.9 | 30.6 | 0.00 | 0.00 | 0.00 | 19 | 1014.8 |
| 20260905073320 | 25 | 0 | 17.7 | 25.7 | 0.00 | 0.00 | 0.00 | 19 | 1014.7 |
| 20260905072816 | 25 | 0 | 19.3 | 27.4 | 0.00 | 0.00 | 0.00 | 19 | 1014.6 |
| 20260905072313 | 25 | 90 | 19.3 | 24.1 | 0.00 | 0.00 | 0.00 | 19 | 1014.5 |
| 20260905071709 | 25 | 0 | 9.7 | 14.5 | 0.00 | 0.00 | 0.00 | 15 | 1014.3 |
| 20260905071126 | 25 | 6.4 | 9.7 | 0.00 | 0.00 | 0.00 | 15 | 1014.3 | |
| 20260905070502 | 25 | 135 | 4.8 | 9.7 | 0.00 | 0.00 | 0.00 | 15 | 1013.9 |
| 20260905070139 | 25 | 0 | 8.0 | 9.7 | 0.00 | 0.00 | 0.00 | 15 | 1014.1 |
| 20260905065554 | 25 | 315 | 8.0 | 11.3 | 0.00 | 0.00 | 0.00 | 15 | 1013.8 |
| 20260905065049 | 26 | 0 | 9.7 | 14.5 | 0.00 | 0.00 | 0.00 | 15 | 1013.6 |
| 20260905064545 | 27 | 4.8 | 8.0 | 0.00 | 0.00 | 0.00 | 19 | 1013.1 | |
| 20260905064040 | 28 | 0 | 4.8 | 4.8 | 0.00 | 0.00 | 0.00 | 19 | 1012.9 |
| 20260905063616 | 28 | 0.0 | 0.0 | 0.00 | 0.00 | 0.00 | 19 | 1012.8 | |
| 20260905063031 | 27 | 0.0 | 0.0 | 0.00 | 0.00 | 0.00 | 15 | 1012.7 | |
| 20260905062526 | 27 | 0.0 | 0.0 | 0.00 | 0.00 | 0.00 | 15 | 1012.7 | |
| 20260905062042 | 27 | 0.0 | 0.0 | 0.00 | 0.00 | 0.00 | 19 | 1012.6 | |
| 20260905061538 | 27 | 0.0 | 0.0 | 0.00 | 0.00 | 0.00 | 19 | 1012.5 | |
| 20260905061033 | 28 | 0.0 | 0.0 | 0.00 | 0.00 | 0.00 | 19 | 1012.4 | |
| 20260905060410 | 27 | 0.0 | 0.0 | 0.00 | 0.00 | 0.00 | 19 | 1012.6 | |
| 20260905055807 | 26 | 0.0 | 0.0 | 0.00 | 0.00 | 0.00 | 15 | 1012.5 | |
| 20260905055202 | 25 | 0.0 | 0.0 | 0.00 | 0.00 | 0.00 | 15 | 1012.4 | |
| 20260905054658 | 25 | 0.0 | 0.0 | 0.00 | 0.00 | 0.00 | 15 | 1012.4 | |
| 20260905054154 | 25 | 0.0 | 0.0 | 0.00 | 0.00 | 0.00 | 15 | 1012.2 | |
| 20260905053649 | 23 | 0.0 | 0.0 | 0.00 | 0.00 | 0.00 | 20 | 1012.2 | |
| 20260905053145 | 22 | 0.0 | 0.0 | 0.00 | 0.00 | 0.00 | 20 | 1012.0 | |
| 20260905052640 | 22 | 0.0 | 0.0 | 0.00 | 0.00 | 0.00 | 20 | 1011.8 | |
| 20260905052136 | 21 | 0.0 | 0.0 | 0.00 | 0.00 | 0.00 | 22 | 1011.8 | |
| 20260905051631 | 20 | 0.0 | 0.0 | 0.00 | 0.00 | 0.00 | 24 | 1011.7 | |
| 20260905051147 | 20 | 0.0 | 0.0 | 0.00 | 0.00 | 0.00 | 30 | 1011.7 | |
| 20260905050622 | 18 | 0.0 | 0.0 | 0.00 | 0.00 | 0.00 | 33 | 1011.5 | |
| 20260905050137 | 17 | 0.0 | 0.0 | 0.00 | 0.00 | 0.00 | 38 | 1011.6 | |
| 20260905045614 | 16 | 0.0 | 0.0 | 0.00 | 0.00 | 0.00 | 44 | 1011.5 | |
| 20260905045010 | 15 | 0.0 | 0.0 | 0.00 | 0.00 | 0.00 | 43 | 1011.6 | |
| 20260905044412 | 15 | 0.0 | 0.0 | 0.00 | 0.00 | 0.00 | 42 | 1011.4 | |
| 20260905043804 | 15 | 0.0 | 0.0 | 0.00 | 0.00 | 0.00 | 41 | 1011.2 | |
| 20260905043301 | 15 | 0.0 | 0.0 | 0.00 | 0.00 | 0.00 | 41 | 1011.3 | |
| 20260905042816 | 15 | 0.0 | 0.0 | 0.00 | 0.00 | 0.00 | 42 | 1011.3 | |
| 20260905042251 | 15 | 0.0 | 0.0 | 0.00 | 0.00 | 0.00 | 42 | 1011.2 | |
| 20260905041747 | 15 | 0.0 | 0.0 | 0.00 | 0.00 | 0.00 | 41 | 1011.2 | |
| 20260905041243 | 15 | 0.0 | 0.0 | 0.00 | 0.00 | 0.00 | 41 | 1011.2 | |
| 20260905040738 | 15 | 0.0 | 0.0 | 0.00 | 0.00 | 0.00 | 40 | 1011.1 | |
| 20260905040234 | 15 | 0.0 | 0.0 | 0.00 | 0.00 | 0.00 | 40 | 1011.0 | |
| 20260905035729 | 15 | 0.0 | 0.0 | 0.00 | 0.00 | 0.00 | 40 | 1010.9 | |
| 20260905035225 | 15 | 0.0 | 0.0 | 0.00 | 0.00 | 0.00 | 39 | 1010.9 | |
| 20260905034721 | 15 | 0.0 | 0.0 | 0.00 | 0.00 | 0.00 | 39 | 1011.0 | |
| 20260905034216 | 16 | 0.0 | 0.0 | 0.00 | 0.00 | 0.00 | 40 | 1010.9 | |
| 20260905033713 | 16 | 0.0 | 0.0 | 0.00 | 0.00 | 0.00 | 40 | 1011.0 | |
| 20260905033109 | 16 | 0.0 | 0.0 | 0.00 | 0.00 | 0.00 | 40 | 1010.9 | |
| 20260905032506 | 16 | 0.0 | 0.0 | 0.00 | 0.00 | 0.00 | 37 | 1010.9 | |
| 20260905031902 | 16 | 0.0 | 0.0 | 0.00 | 0.00 | 0.00 | 37 | 1010.8 | |
| 20260905031458 | 16 | 0.0 | 0.0 | 0.00 | 0.00 | 0.00 | 37 | 1011.0 | |
| 20260905030954 | 16 | 0.0 | 0.0 | 0.00 | 0.00 | 0.00 | 35 | 1010.8 | |
| 20260905030449 | 17 | 0.0 | 0.0 | 0.00 | 0.00 | 0.00 | 35 | 1010.9 | |
| 20260905025945 | 17 | 0.0 | 0.0 | 0.00 | 0.00 | 0.00 | 33 | 1010.7 | |
| 20260905025440 | 17 | 0.0 | 0.0 | 0.00 | 0.00 | 0.00 | 37 | 1010.8 | |
| 20260905024936 | 17 | 0.0 | 0.0 | 0.00 | 0.00 | 0.00 | 38 | 1010.7 | |
| 20260905024431 | 16 | 180 | 0.0 | 1.6 | 0.00 | 0.00 | 0.00 | 40 | 1010.7 |